Regional Weather Roundup
Issued by NWS

Home | Current Version | Previous Version | Graphics & Text | Print | Product List | Glossary On
Versions: 1 2 3 4 5 6 7 8 9 10 11 12 13 14 15 16 17 18 19 20 21 22 23 24 25 26 27 28 29 30 31 32 33 34 35 36 37 38 39 40 41 42 43 44 45 46 47 48 49 50
682
ASUS45 KBOU 161210
RWRCO

WEATHER ROUNDUP FOR COLORADO
NATIONAL WEATHER SERVICE DENVER/BOULDER CO
500 AM MST SAT DEC 16 2017

NOTE: "FAIR" INDICATES FEW OR NO CLOUDS BELOW 12000 FEET WITH NO
SIGNIFICANT WEATHER AND/OR OBSTRUCTIONS TO VISIBILITY.

COZ001>005-013-030-031-161300-
...NORTHWEST COLORADO...

CITY           SKY/WX    TMP DP  RH WIND       PRES   REMARKS
CRAIG          FAIR      12   6  77 SW3       29.88F
HAYDEN         FAIR      21   9  59 E14       29.89F WCI   8
MEEKER         FAIR      19   9  65 CALM      29.87F
RABBIT EARS PA FAIR      27 -11  18 SW5       29.91F WCI  21
STEAMBOAT SPGS FAIR      13   8  79 CALM      29.89F
WALDEN         FAIR      21   1  42 SE8       29.88F WCI  12
$$

COZ006>008-011-161300-
...WEST CENTRAL VALLEYS...

CITY           SKY/WX    TMP DP  RH WIND       PRES   REMARKS
GRAND JUNCTION FAIR      23   8  52 CALM      29.92F
MONTROSE       FAIR      17   7  64 SE7       29.94F WCI   8
EAGLE          FAIR       9   5  84 CALM      29.98F
RIFLE          FAIR      15   6  67 NE3       29.94F
DELTA          FAIR      23   2  40 E6        29.93F WCI  15
NUCLA          FAIR      23  -6  28 CALM      29.97F
$$

COZ017>023-064>068-161300-
...SOUTHWEST COLORADO...

CITY           SKY/WX    TMP DP  RH WIND       PRES   REMARKS
DURANGO        FAIR      13   9  84 E5        29.96F WCI   5
CORTEZ         FAIR      11   1  64 SE3       29.94F
PAGOSA SPRINGS FAIR      18   8  67 CALM      29.96F
TELLURIDE      FAIR      31   4  31 SE6       29.95F WCI  25
WOLF CREEK PAS FAIR      28  -2  26 SW12      30.07F WCI  18
$$

COZ009-010-012-014-032>034-037-058>063-161300-
...CENTRAL COLORADO...

CITY           SKY/WX    TMP DP  RH WIND       PRES   REMARKS
ASPEN          FAIR      15   9  76 CALM      29.89F
BUENA VISTA    FAIR      19  10  68 W5        29.90F WCI  12
COPPER MTN     NOT AVBL
BERTHOUD PASS  FAIR      23  12  63 W25       29.98F WCI   7
COTTONWOOD PAS FAIR      39   3  22 W3        29.92F
GUNNISON       FAIR       6   1  80 CALM      30.01F
KREMMLING      FAIR       5   1  85 CALM      29.97F
LEADVILLE      FAIR      23   2  40 CALM      29.91F
MONARCH PASS   FAIR      27  -2  28 W28       30.10F WCI  11
SALIDA         FAIR      26   9  48 N10       29.96F WCI  16
SUNLIGHT       FAIR      27  -9  20 SW13      29.98F WCI  16
WILKERSON PASS FAIR      30   1  29 W7        29.98F WCI  23
$$

COZ069>075-161300-
...SAN LUIS VALLEY/SANGRE DE CRISTO MOUNTAINS...

CITY           SKY/WX    TMP DP  RH WIND       PRES   REMARKS
ALAMOSA        FAIR       2  -1  88 CALM      29.97F
DEL NORTE      FAIR      16   6  66 W8        29.97F WCI   5
LA VETA PASS   FAIR      27  -4  26 SW30        N/A  WCI  10
SAGUACHE       FAIR      18   5  57 NW14      29.97F WCI   4
$$

COZ035-036-038>040-161300-
...NORTHERN COLORADO FRONT RANGE...

CITY           SKY/WX    TMP DP  RH WIND       PRES   REMARKS
DENVER INTL AP CLOUDY    40  16  37 S7        29.74F
DMNS CITY PARK NOT AVBL
AURORA         MOCLDY    44  12  27 S9        29.75F
FRONT RANGE AP FAIR      43  19  38 S7        29.76S
ERIE MUNI ARPT FAIR      40  13  32 CALM      29.79F
BOULDER MUN AP FAIR      55   3  12 W15G21    29.70F
CENTENNIAL     MOCLDY    39  16  39 S5        29.75F
BROOMFIELD     FAIR      43  18  36 S3        29.75S
FORT COLLINS   FAIR      34  24  67 CALM      29.76F
LONGMONT       FAIR      47  15  27 E7        29.75S
$$

COZ041-046-047-076>085-087-088-161300-
...PIKES PEAK/PALMER DIVIDE AND SOUTHERN FOOTHILLS...

CITY           SKY/WX    TMP DP  RH WIND       PRES   REMARKS
COLO. SPRINGS  MOCLDY    38   9  30 N12       29.76F
A. F. ACADEMY  FAIR      31  10  40 N8        29.76F WCI  24
SCHRIEVER AFB  FAIR      40   8  26 NE6       29.76F
CHEYENNE MTN   FAIR      45  11  25 NW7       29.73F
ELLICOTT         N/A    N/A N/A N/A E3        29.74F
FALCON         FAIR      33   7  34 NW6       29.78F WCI  27
FORT CARSON    FAIR      33  13  43 N7        29.73F WCI  27
LIMON          FAIR      21  12  68 N7        29.76S WCI  12
MONUMENT HILL  FAIR      34  12  40 S12       29.81F WCI  25
CANON CITY     FAIR      43  10  26 W17       29.75F
WALSENBURG     FAIR      45   3  18 W18       29.76F
TRINIDAD       FAIR      29  12  49 W14       29.76F WCI  18
$$

COZ042>045-048>051-090-091-161300-
...NORTHEAST COLORADO...

CITY           SKY/WX    TMP DP  RH WIND       PRES   REMARKS
GREELEY ARPT   FAIR      28  19  69 E5        29.76S WCI  23
AKRON          FAIR      38  12  34 NW8       29.75R
BURLINGTON     FAIR      27  12  53 NW13      29.73F WCI  16
WRAY           FAIR      30  14  51 E5        29.74S WCI  25
YUMA           FAIR      27  12  54 W12       29.74S WCI  16
STERLING       FAIR      21  18  86 W5        29.75S WCI  15
HOLYOKE        FAIR      30  18  59 NW7       29.76S WCI  23
FORT MORGAN    FAIR      30  17  57 CALM      29.76S
$$

COZ086-089-092>099-161300-
...SOUTHEAST COLORADO...

CITY           SKY/WX    TMP DP  RH WIND       PRES   REMARKS
PUEBLO         FAIR      21  12  68 W3        29.73F
LA JUNTA       FAIR      26  11  52 W6        29.73F WCI  19
LAMAR          FAIR      17  12  80 SW3       29.72F
SPRINGFIELD      N/A     28  13  53 CALM      29.71F
$$




USA.gov is the U.S. government's official web portal to all federal, state and local government web resources and services.